Regional Weather Roundup
Issued by NWS

Home | Current Version | Previous Version | Graphics & Text | Print | Product List | Glossary On
Versions: 1 2 3 4 5 6 7 8 9 10 11 12 13 14 15 16 17 18 19 20 21 22 23 24 25 26 27 28 29 30 31 32 33 34 35 36 37 38 39 40 41 42 43 44 45 46 47 48 49 50
070
ASUS43 KOAX 220702
RWRNE

WEATHER ROUNDUP FOR NEBRASKA
NATIONAL WEATHER SERVICE OMAHA NE
100 AM CST WED FEB 22 2017

NOTES: SATELLITE DATA IS BEING USED TO AUGMENT CLOUD COVER ABOVE
       12000 FEET.
       "FAIR" INDICATES FEW OR NO CLOUDS BELOW 12,000 FEET WITH NO
       SIGNIFICANT WEATHER AND/OR OBSTRUCTIONS TO VISIBILITY.

  * THESE STATIONS DO NOT REPORT WEATHER SUCH AS RAIN...SNOW OR FOG.

NEZ001>004-019>022-054>056-220800-
NEBRASKA PANHANDLE

CITY           SKY/WX    TMP DP  RH WIND       PRES   REMARKS
SCOTTSBLUFF    CLEAR     43  22  43 NW7       29.76S
ALLIANCE       CLEAR     38  22  52 W7        29.75S WCI  33
CHADRON        MOCLDY    47  37  68 SW9       29.77R
KIMBALL        CLEAR     52  22  31 W23       29.80F
SIDNEY         CLEAR     48  15  26 CALM      29.79R
$$

NEZ057>060-069>072-079>082-220800-
SOUTHWEST NEBRASKA

CITY           SKY/WX    TMP DP  RH WIND       PRES   REMARKS
NORTH PLATTE   CLEAR     32  25  75 NW5       29.77F WCI  27
IMPERIAL       CLOUDY    36  23  59 NW5       29.79S WCI  32
LEXINGTON      CLOUDY    40  29  64 CALM      29.76S
MCCOOK         CLOUDY    55  27  34 SW14      29.75F
OGALLALA       CLEAR     32  21  63 W5        29.77F WCI  28
$$

NEZ005>010-023>029-035>040-094-220800-
NORTH CENTRAL NEBRASKA

CITY           SKY/WX    TMP DP  RH WIND       PRES   REMARKS
VALENTINE      CLEAR     37  28  70 SW5       29.73F WCI  33
AINSWORTH      CLEAR     45  30  57 NW8       29.74R
BROKEN BOW     PTCLDY    45  31  58 CALM      29.74F
O`NEILL        CLEAR     47  31  54 SW8       29.73R
ORD            CLOUDY    43  33  68 CALM      29.73F
THEDFORD       CLEAR     50  26  39 S10       29.75F
$$

NEZ041-046>049-061>064-073>077-083>087-220800-
SOUTH CENTRAL NEBRASKA

CITY           SKY/WX    TMP DP  RH WIND       PRES   REMARKS
GRAND ISLAND   CLEAR     52  30  43 SW8       29.75F
AURORA         CLEAR     44  29  56 W9        29.76S
HASTINGS       CLOUDY    45  28  51 W5        29.76F
HEBRON         CLEAR     51  33  49 S10       29.78R
HOLDREGE       CLOUDY    54  25  31 W7        29.76S
KEARNEY *      CLOUDY    46  27  46 W3        29.76F
YORK           CLEAR     46  30  53 SW8       29.76S
$$

NEZ011>018-030>034-042>045-220800-
NORTHEAST NEBRASKA

CITY           SKY/WX    TMP DP  RH WIND       PRES   REMARKS
NORFOLK        CLEAR     45  33  63 S10       29.70S
ALBION         PTCLDY    52  32  45 CALM      29.72S
BLAIR          PTCLDY    52  36  54 S12       29.74S
FREMONT        CLEAR     53  34  47 SW7       29.75R
TEKAMAH        CLEAR     48  36  63 S13       29.73S
WAYNE          CLEAR     47  36  64 S3        29.68F
$$

NEZ050>053-065>068-078-088>093-220800-
SOUTHEAST NEBRASKA

CITY           SKY/WX    TMP DP  RH WIND       PRES   REMARKS
LINCOLN        CLEAR     54  35  48 S12       29.77S
OMAHA EPPLEY   PTCLDY    46  35  65 SE12      29.75F
BEATRICE       PTCLDY    53  36  51 S14       29.78F
FALLS CITY     CLEAR     53  33  46 S13       29.80F
NEBRASKA CITY  PTCLDY    55  27  34 SW16      29.79S
PLATTSMOUTH    PTCLDY    52  31  44 S15       29.76F
$$

NEZ044-045-051>053-067-220800-
OMAHA AREA

CITY           SKY/WX    TMP DP  RH WIND       PRES   REMARKS
OMAHA EPPLEY   PTCLDY    46  35  65 SE12      29.75F
BLAIR          PTCLDY    52  36  54 S12       29.74S
FREMONT        CLEAR     53  34  47 SW7       29.75R
MILLARD        CLEAR     57  37  47 S5        29.76S
OFFUTT AFB     CLEAR     47  35  61 E7        29.76S
PLATTSMOUTH    PTCLDY    52  31  44 S15       29.76F
WAHOO          FAIR      54  33  45 SW12G18   29.74S
$$




USA.gov is the U.S. government's official web portal to all federal, state and local government web resources and services.